Regional Weather Roundup
Issued by NWS State College, PA

Home | Current Version | Previous Version | Text Only | Print | Product List | Glossary Off
Versions: 1 2 3 4 5 6 7 8 9 10 11 12 13 14 15 16 17 18 19 20 21 22 23 24 25 26 27 28 29 30 31 32 33 34 35 36 37 38 39 40 41 42 43 44 45 46 47 48 49 50

000
ASUS41 KCTP 180110
RWRCTP

REGIONAL WEATHER ROUNDUP
NATIONAL WEATHER SERVICE STATE COLLEGE PA
900 PM EDT TUE OCT 17 2017

Note: "fair" indicates few or no clouds below 12,000 feet with no
significant weather and/or obstructions to visibility.

* = STATION THAT DOES NOT REPORT PRECIPITATION /E.G. RAIN...SNOW...ETC/
    THUNDER OR FOG.

PAZ002>004-007>009-013>016-020>023-029>032-180200-
WESTERN PENNSYLVANIA

CITY           SKY/WX    TMP DP  RH WIND       PRES   REMARKS
ERIE           CLEAR     58  40  51 S13       30.19R
MEADVILLE      CLEAR     52  40  63 S7        30.23R
FRANKLIN*      CLEAR     52  38  58 SW8       30.25R
NEW CASTLE     FAIR      53  40  61 S5        30.26R
BEAVER COUNTY  NOT AVBL
BUTLER*        CLEAR     52  38  58 S6        30.27R
PITTSBURGH INT CLEAR     54  40  59 S5        30.26S
PITTSBURGH     CLEAR     54  36  50 SW8       30.26S
INDIANA*       CLEAR     48  41  76 CALM      30.29S
LATROBE        CLEAR     48  39  71 SW5       30.29R
WASHINGTON CO* CLEAR     47  41  80 S5        30.31R
$$

PAZ004>006-010>012-017>019-024>028-033>037-041-042-045-046-049>053-180200-
CENTRAL PENNSYLVANIA

CITY           SKY/WX    TMP DP  RH WIND       PRES   REMARKS
BRADFORD       CLEAR     49  38  65 VRB3      30.22R
DUBOIS         CLEAR     49  36  61 SW5       30.24R
CLEARFIELD     CLEAR     48  38  68 SW3       30.26R
JOHNSTOWN      CLEAR     49  37  63 W8        30.27S
ALTOONA        CLEAR     49  39  68 S5        30.28R
STATE COLLEGE  PTCLDY    50  37  62 S7        30.26S
WILLIAMSPORT   CLEAR     49  41  74 CALM      30.23S
SELINSGROVE    CLEAR     45  42  89 CALM      30.27S
FT INDIANTOWN  CLEAR     44  40  89 CALM      30.28S
CAPITAL CITY   CLEAR     49  39  68 CALM      30.28S
HARRISBURG     CLEAR     51  41  68 E5        30.28R
YORK           CLEAR     46  40  79 CALM      30.29R
$$

PAZ038>040-043-044-047-048-054-055-060>062-067>071-180200-
EASTERN PENNSYLVANIA

CITY           SKY/WX    TMP DP  RH WIND       PRES   REMARKS
SCRANTON       CLEAR     50  32  50 CALM      30.25S
MOUNT POCONO   CLEAR     39  34  82 W5        30.25S
ALLENTOWN      CLEAR     47  35  63 SW3       30.28S
QUAKERTOWN*    CLEAR     41  37  87 CALM      30.30S
READING        CLEAR     50  39  66 S5        30.28S
LANCASTER      CLEAR     48  39  71 CALM      30.29R
COATESVILLE    CLEAR     50  37  62 SW5       30.31S
POTTSTOWN      CLEAR     44  39  82 CALM      30.31R
BLUE BELL      CLEAR     39  39 100 CALM      30.31S
DOYLESTOWN     CLEAR     47  35  63 CALM      30.29R
WILLOW GROVE   NOT AVBL
NORTH PHILA    CLEAR     51  39  63 CALM      30.32R
PHILADELPHIA   CLEAR     54  38  54 S7        30.31R
$$



USA.gov is the U.S. government's official web portal to all federal, state and local government web resources and services.